Flag for U.S.A. Weather past 2 weeks in Provo, Utah, U.S.A.

Now
90 °F

Passing clouds.


Feels Like: 86 °F
Forecast: 61 / 83 °F
Wind: 6 mph from North

Location: Provo Municipal

Current Time: Aug 1, 2015 at 6:50:33 PM

Latest Report: Aug 1, 2015 at 4:47 PM


Visibility: 15 mi

Pressure: 30.05 "Hg (25.73 "Hg at 1386m altitude)

Humidity: 18%

Dew point: 41 °F

Location of ProvoLocation

Historic Weather in Provo — Graph

°F

Provo temperature yesterday

Maximum temperature yesterday: 91 °F (at 4:55 PM)
Minimum temperature yesterday: 54 °F (at 5:55 AM)
Average temperature yesterday: 68 °F

Past Weeks' High & Low Weather Summary

 TemperatureHumidityPressure
High93 °F (Jul 26, 2:51 PM)77% (Jul 21, 6:35 AM)30.34 "Hg (Jul 21, 6:35 AM)
Low48 °F (Jul 29, 5:15 AM)11% (Jul 26, 2:51 PM)29.83 "Hg (Jul 17, 6:50 PM)
Average67 °F44%30.11 "Hg
* Reported Jul 17 4:47 PM — Aug 1 4:47 PM, Provo, Weather by CustomWeather, © 2015

Note: Actual official high and low records may vary slightly from our data, if they occured in-between our weather recording intervals... More about our weather records

Advertising

Provo weather history for previous 24 hours

 ConditionsComfort  
Time TempWeatherWind HumidityBarometerVisibility
4:47 PM
Sat, Aug 1
90 °FPassing clouds.6 mph18%30.05 "Hg15 mi
3:47 PM90 °FPassing clouds.6 mph18%30.08 "Hg15 mi
2:54 PM88 °FPassing clouds.6 mph19%30.10 "Hg15 mi
1:53 PM84 °FPassing clouds.6 mph19%30.13 "Hg15 mi
12:47 PM81 °FPassing clouds.6 mph28%30.15 "Hg15 mi
11:47 AM79 °FPassing clouds.6 mph26%30.17 "Hg15 mi
10:53 AM73 °FPassing clouds.No wind36%30.18 "Hg15 mi
9:53 AM75 °FPassing clouds.No wind27%30.19 "Hg15 mi
8:53 AM70 °FPassing clouds.No wind27%30.20 "Hg15 mi
7:53 AM61 °FPassing clouds.No wind36%30.19 "Hg15 mi
7:00 AM61 °FPassing clouds.No wind39%30.18 "Hg15 mi
6:35 AM55 °FClear.No wind47%30.16 "Hg10 mi
6:15 AM59 °FClear.5 mph39%30.16 "Hg10 mi
5:55 AM57 °FClear.5 mph41%30.15 "Hg10 mi
5:35 AM57 °FClear.No wind41%30.15 "Hg10 mi
5:15 AM57 °FClear.No wind39%30.14 "Hg10 mi
4:55 AM59 °FClear.3 mph39%30.14 "Hg10 mi
4:35 AM57 °FClear.6 mph41%30.15 "Hg10 mi
4:15 AM57 °FClear.5 mph44%30.14 "Hg10 mi
3:55 AM59 °FClear.No wind45%30.14 "Hg10 mi
3:35 AM61 °FClear.3 mph39%30.14 "Hg10 mi
3:15 AM59 °FClear.No wind42%30.14 "Hg10 mi
2:55 AM61 °FClear.No wind39%30.14 "Hg10 mi
2:35 AM61 °FClear.3 mph39%30.14 "Hg10 mi
2:15 AM61 °FClear.5 mph39%30.15 "Hg10 mi
1:55 AM63 °FClear.5 mph34%30.15 "Hg10 mi
1:35 AM63 °FClear.6 mph42%30.15 "Hg10 mi
1:15 AM63 °FClear.6 mph45%30.15 "Hg10 mi
12:55 AM64 °FClear.6 mph46%30.15 "Hg10 mi
12:35 AM64 °FClear.5 mph37%30.16 "Hg10 mi
12:15 AM64 °FClear.3 mph46%30.16 "Hg10 mi
11:55 PM
Fri, Jul 31
64 °FClear.3 mph46%30.15 "Hg10 mi
11:35 PM64 °FClear.No wind49%30.15 "Hg10 mi
11:15 PM66 °FClear.No wind43%30.15 "Hg10 mi
10:55 PM66 °FClear.7 mph46%30.15 "Hg9 mi
10:15 PM70 °FClear.6 mph35%30.15 "Hg10 mi
9:55 PM73 °FClear.7 mph36%30.14 "Hg10 mi
9:15 PM79 °FSunny.7 mph30%30.13 "Hg3 mi
8:47 PM77 °FPassing clouds.12 mph34%30.13 "Hg15 mi
7:47 PM86 °FPassing clouds.12 mph18%30.12 "Hg15 mi
6:58 PM90 °FPassing clouds.12 mph18%30.12 "Hg15 mi
Weather by CustomWeather, © 2015

See weather overviewHow to use our weather pages